Wind_Speed
18 17 16 16 16 16 16 16 16 15 14 14 14 14 14 14 14 15 14 16 15 12 12 12 13 16 18 20 21 18 22 25 22 16 8 5 12 12 11 16 10 7 8 9 5
15 15 14 14 14 14 14 14 14 13 12 12 12 12 12 13 13 15 13 13 13 11 12 11 10 13 16 18 21 23 24 25 19 14 10 11 13 13 10 9 8 9 13 8 6
14 14 13 13 13 13 13 13 13 11 11 11 11 11 11 10 9 14 10 11 12 12 13 13 11 13 16 16 22 23 29 22 21 18 14 6 13 14 10 11 10 14 6 6 6
12 12 12 12 12 12 12 12 12 11 10 10 10 9 9 7 1 10 7 8 10 12 12 12 15 15 15 19 18 25 24 27 21 18 17 16 12 13 12 7 16 12 7 7 9
10 11 10 10 11 11 11 11 11 10 10 9 9 8 8 6 7 9 7 5 8 10 11 12 15 14 16 14 18 22 23 22 26 22 17 17 17 16 17 18 17 11 10 10 13
10 10 10 10 10 10 10 10 10 9 9 9 8 8 7 3 14 11 10 6 5 8 10 13 12 13 14 18 18 17 22 23 19 25 21 19 19 20 22 19 24 15 13 12 16
10 10 10 10 10 10 9 8 8 8 8 8 8 8 8 9 11 9 9 11 10 5 10 13 14 14 10 14 17 19 18 21 25 22 20 22 24 24 22 21 23 21 17 17 18
10 10 10 10 9 9 8 7 7 7 7 7 7 7 5 7 8 8 7 9 10 11 12 13 15 13 14 10 11 17 18 22 24 22 22 19 29 26 29 28 26 25 22 18 20
10 9 9 9 8 8 7 7 7 6 4 4 4 4 1 5 3 8 8 5 6 7 10 11 14 14 11 15 16 16 21 21 21 24 22 23 25 29 33 33 27 28 23 21 20
9 8 8 8 7 6 6 4 7 7 4 5 6 3 5 2 4 5 7 8 5 5 6 7 10 12 14 17 23 19 19 20 20 23 19 26 25 22 30 28 24 27 26 25 23
7 6 6 6 5 5 4 2 3 8 10 8 5 8 8 8 5 2 5 7 7 7 5 7 12 19 16 16 22 22 18 14 19 18 22 21 27 31 27 25 27 26 30 30 27
6 5 4 4 3 2 2 4 4 5 9 10 10 9 4 6 3 4 3 8 8 9 9 10 15 15 16 17 18 20 19 21 19 18 19 23 25 29 35 28 26 26 25 33 31
4 3 3 3 2 1 1 2 7 8 9 5 6 7 6 10 2 3 5 8 9 12 13 17 18 8 13 17 18 19 21 21 22 19 23 23 27 30 34 27 27 27 28 28 31
3 2 2 3 1 2 2 1 10 9 5 8 7 5 3 4 1 3 6 8 10 11 12 18 16 17 16 18 18 22 19 22 23 23 28 24 26 30 31 35 33 30 30 31 34
4 3 3 4 3 2 2 2 6 12 2 3 9 9 4 4 4 3 6 8 12 13 12 16 10 11 14 18 17 22 20 23 22 25 29 32 28 31 27 34 35 36 31 32 32
7 7 6 6 5 5 4 5 8 6 3 3 5 5 2 4 4 5 7 6 12 14 16 21 17 17 18 17 16 17 18 21 23 25 25 30 32 35 33 30 32 30 31 28 31
11 11 10 10 6 7 8 6 5 6 5 4 8 7 5 7 7 8 10 11 7 13 19 10 16 18 17 19 18 21 22 23 22 21 19 28 34 37 31 30 30 24 32 24 30
12 13 11 9 10 11 11 5 4 2 5 8 10 9 6 11 8 13 13 8 5 11 15 22 20 10 13 10 18 20 19 20 23 19 22 30 32 40 30 26 18 25 22 22 19
12 10 12 9 9 12 10 6 3 3 7 11 10 8 7 11 15 15 13 10 10 10 14 19 24 30 19 19 21 23 26 27 27 29 31 38 38 38 15 15 12 12 21 29 24
8 6 8 6 9 12 6 5 1 4 6 7 8 7 13 14 14 14 11 3 7 10 14 17 28 22 28 26 25 26 28 33 32 21 24 28 33 8 4 9 7 16 13 16 28
7 3 9 7 14 7 3 3 1 7 7 6 7 9 9 10 11 10 6 7 10 13 15 18 19 24 22 21 25 27 25 25 29 22 16 14 17 16 17 10 10 13 15 17 17
7 4 5 5 4 3 1 0 1 5 7 4 5 4 6 8 8 6 8 9 12 16 20 14 15 24 23 25 22 23 27 16 11 9 16 24 31 11 3 7 7 9 15 13 11
2 1 4 8 1 3 3 1 2 4 5 4 4 4 6 6 7 6 7 10 13 18 14 16 13 26 22 18 6 21 21 22 22 22 28 24 14 11 6 7 8 6 12 13 18
2 3 10 7 4 5 2 2 3 5 5 4 3 5 7 7 6 9 11 13 18 16 19 14 14 19 25 26 24 25 28 27 19 15 24 22 22 21 17 9 2 8 13 17 21
1 6 1 3 6 4 3 1 2 4 5 5 3 6 7 6 10 5 14 16 14 9 12 11 17 20 24 26 24 26 26 27 23 19 12 27 31 27 19 17 24 15 14 21 23
1 1 3 3 4 2 3 2 2 4 2 5 5 7 7 7 9 14 14 12 8 11 10 10 14 19 23 20 20 23 16 17 15 12 16 17 24 20 21 20 10 11 14 19 25
5 5 1 7 6 2 7 5 4 3 6 4 6 8 8 11 12 12 10 8 8 7 10 10 16 20 22 20 20 7 16 12 12 7 10 11 13 7 7 4 7 7 11 18 25
Wind_Direction
291 289 288 289 291 294 295 296 296 297 297 296 292 291 285 280 271 261 252 254 255 248 239 232 232 232 227 227 222 231 234 243 239 236 253 224 168 191 187 227 220 207 250 250 252
297 293 294 295 300 298 299 297 297 296 300 296 297 296 287 282 275 268 253 251 249 241 232 224 228 227 222 226 221 221 232 232 232 253 241 217 194 197 192 180 189 174 222 256 250
296 299 302 303 301 301 299 295 294 299 300 299 298 293 291 286 296 267 249 243 244 236 226 207 209 223 223 223 221 229 230 232 236 253 235 244 199 201 189 210 204 203 224 241 242
304 305 306 305 303 298 294 296 300 301 297 295 292 286 287 280 72 275 257 238 237 232 224 210 212 223 223 224 229 234 238 235 234 252 239 239 225 203 193 223 211 212 223 211 194
309 308 310 311 303 303 304 304 301 297 291 290 284 284 280 270 271 265 251 232 233 232 222 213 211 218 227 234 233 239 239 239 233 239 242 230 223 221 207 208 197 221 210 198 184
305 308 316 318 324 323 316 310 303 295 292 288 281 278 271 255 259 259 247 226 215 225 205 206 217 229 238 235 240 236 245 231 239 235 239 231 221 218 220 202 216 218 204 197 184
302 307 311 316 324 333 329 318 312 303 295 285 278 268 263 231 272 259 236 226 227 230 210 209 218 222 238 242 243 231 246 233 233 233 230 230 225 219 231 223 227 216 214 201 201
298 302 306 308 316 325 331 336 332 325 308 285 272 268 259 268 267 258 234 232 237 230 212 218 228 226 237 233 247 237 241 241 237 234 224 225 229 229 219 228 230 223 220 217 224
297 301 306 311 317 320 325 334 346 341 318 308 294 272 293 305 279 248 236 233 253 253 243 234 221 217 236 234 246 234 241 235 245 221 221 229 232 242 226 225 222 232 224 223 228
292 301 308 318 325 321 325 359 57 41 38 85 24 40 301 223 258 247 233 204 235 239 249 226 216 228 233 228 240 231 228 248 236 216 225 231 232 206 221 215 206 221 228 230 234
293 299 315 327 331 334 341 89 41 4 82 70 327 270 247 240 260 278 270 198 227 225 233 241 228 232 241 240 248 264 270 268 245 239 228 235 235 220 234 213 214 222 236 235 236
304 292 300 327 346 0 18 72 133 129 95 12 33 19 314 205 153 225 265 200 226 247 254 237 247 248 252 247 250 254 256 257 258 246 243 243 238 239 220 220 218 220 221 242 241
316 316 304 328 344 358 12 72 159 135 96 10 32 34 87 103 71 268 229 225 245 266 254 255 257 259 248 248 250 251 255 258 257 254 249 251 252 242 235 229 224 227 230 229 242
360 3 0 356 24 18 356 327 174 173 168 62 22 348 45 67 146 347 246 233 259 270 274 260 264 259 256 250 252 258 257 258 258 259 256 237 254 244 239 242 227 226 225 227 241
33 31 26 28 30 13 346 347 176 199 210 23 8 33 33 1 323 261 287 250 266 264 275 273 255 260 254 255 257 263 266 261 259 254 259 253 255 259 244 240 237 232 230 226 228
45 40 36 33 36 24 25 101 137 220 85 20 4 13 332 337 347 340 328 300 283 274 265 265 265 268 264 264 266 272 270 264 257 260 255 252 255 257 250 246 247 249 226 227 226
57 53 50 47 48 42 72 106 266 8 356 345 337 333 307 316 309 328 317 315 329 314 288 287 268 266 266 254 269 261 254 257 246 235 245 252 249 256 260 253 249 255 235 229 230
69 65 59 61 68 75 76 56 32 8 359 315 327 319 278 327 303 321 314 283 342 337 307 296 308 284 316 284 305 289 277 271 280 276 275 268 249 252 261 239 217 228 228 234 228
59 60 56 60 70 84 37 24 51 343 332 337 344 322 314 313 319 317 308 292 313 344 340 312 286 284 294 283 289 287 277 277 291 286 287 277 275 273 227 222 216 216 226 227 208
53 78 346 49 65 59 34 80 46 19 342 336 327 316 316 319 319 318 309 334 314 322 326 305 301 289 293 294 282 277 278 283 275 275 268 271 273 293 231 267 269 222 206 190 197
53 63 333 21 55 31 67 105 63 352 343 352 326 320 319 324 324 320 318 342 342 328 327 314 295 299 295 286 292 296 292 297 275 292 290 276 280 324 231 228 268 242 228 214 192
43 273 322 22 39 60 80 81 330 342 13 7 359 353 340 337 329 320 316 306 326 330 324 311 303 295 293 292 286 281 285 313 309 303 279 272 268 265 183 183 227 215 227 233 193
309 322 360 59 248 345 84 51 45 26 358 2 350 344 328 325 320 309 304 304 317 321 311 313 304 306 303 301 252 308 300 292 291 299 279 293 290 358 92 349 262 229 244 200 200
38 292 330 24 52 116 139 30 300 352 345 351 349 347 336 314 288 294 304 306 309 311 294 311 301 292 293 299 301 297 294 289 271 269 288 290 334 349 329 331 217 239 203 178 172
33 277 240 248 331 52 94 85 335 318 332 2 310 329 327 321 311 296 304 312 327 311 333 306 300 300 296 297 293 287 307 297 274 251 249 283 289 315 341 332 323 237 184 168 171
188 311 316 333 341 80 19 304 327 315 336 297 319 318 318 312 300 302 305 315 315 312 326 318 310 310 304 293 308 312 322 330 310 306 281 291 293 298 318 312 317 237 178 174 174
267 275 288 293 336 52 266 276 277 320 296 295 307 317 306 290 299 293 286 296 294 315 320 323 319 316 305 325 321 6 3 338 348 332 320 315 327 340 264 207 8 289 180 192 209
Height
3174 3173 3170 3169 3167 3165 3164 3162 3160 3158 3157 3156 3155 3154 3153 3152 3152 3152 3152 3152 3152 3154 3155 3157 3159 3161 3163 3167 3172 3177 3177 3174 3172 3171 3170 3173 3174 3177 3177 3175 3178 3179 3181 3178 3179
3171 3170 3167 3165 3163 3162 3161 3159 3157 3156 3154 3153 3153 3152 3151 3150 3149 3149 3149 3149 3150 3151 3153 3155 3158 3160 3162 3165 3170 3171 3172 3170 3170 3169 3170 3172 3173 3175 3175 3176 3176 3178 3175 3177 3178
3169 3166 3164 3162 3161 3160 3158 3157 3155 3153 3152 3151 3150 3150 3149 3148 3148 3146 3146 3146 3147 3148 3150 3153 3158 3161 3162 3165 3167 3167 3167 3169 3169 3168 3169 3172 3170 3171 3174 3176 3176 3174 3173 3175 3176
3166 3164 3162 3160 3159 3158 3156 3154 3153 3151 3150 3149 3149 3148 3148 3148 3153 3144 3143 3144 3145 3146 3148 3150 3154 3158 3161 3163 3165 3165 3165 3166 3167 3168 3169 3171 3171 3169 3172 3172 3171 3171 3172 3174 3175
3164 3163 3161 3158 3157 3155 3153 3152 3151 3149 3149 3148 3147 3146 3146 3147 3147 3143 3143 3143 3144 3145 3147 3149 3153 3157 3158 3160 3162 3161 3163 3164 3165 3165 3167 3169 3168 3167 3170 3169 3169 3169 3170 3172 3174
3163 3161 3159 3157 3155 3153 3151 3150 3149 3148 3147 3146 3145 3145 3145 3146 3142 3141 3142 3143 3144 3144 3146 3150 3154 3156 3157 3157 3158 3159 3160 3159 3161 3162 3164 3165 3166 3165 3165 3165 3165 3167 3169 3170 3173
3161 3159 3157 3156 3153 3152 3151 3149 3147 3145 3144 3144 3143 3143 3143 3143 3141 3140 3140 3141 3143 3144 3147 3148 3152 3153 3154 3155 3155 3155 3155 3155 3156 3158 3160 3161 3162 3162 3161 3161 3162 3165 3166 3168 3169
3158 3157 3155 3154 3152 3151 3150 3148 3146 3144 3143 3142 3141 3141 3140 3139 3140 3140 3140 3140 3141 3142 3143 3146 3146 3149 3152 3154 3152 3152 3152 3150 3150 3153 3155 3157 3155 3158 3156 3156 3158 3161 3163 3164 3166
3156 3155 3154 3152 3151 3150 3149 3147 3145 3143 3142 3141 3141 3141 3144 3139 3139 3138 3139 3142 3141 3141 3141 3142 3143 3146 3150 3150 3150 3148 3146 3145 3145 3145 3151 3152 3152 3152 3150 3152 3154 3156 3160 3161 3163
3154 3153 3152 3151 3150 3149 3148 3147 3146 3145 3142 3141 3141 3143 3141 3143 3139 3138 3139 3142 3142 3141 3141 3142 3144 3145 3146 3147 3142 3140 3139 3140 3139 3142 3145 3147 3148 3146 3146 3148 3153 3151 3154 3157 3159
3152 3151 3150 3150 3149 3148 3148 3148 3149 3148 3143 3143 3144 3141 3140 3140 3139 3139 3139 3141 3144 3143 3144 3143 3145 3142 3143 3143 3142 3138 3138 3135 3136 3139 3139 3141 3141 3141 3142 3144 3146 3152 3148 3151 3154
3150 3150 3149 3149 3148 3148 3147 3146 3145 3148 3145 3145 3142 3140 3137 3137 3141 3141 3140 3143 3144 3143 3143 3144 3140 3139 3139 3140 3140 3139 3139 3137 3135 3135 3137 3136 3136 3137 3132 3139 3139 3143 3144 3145 3147
3149 3148 3148 3148 3148 3147 3146 3146 3145 3146 3146 3148 3144 3143 3140 3140 3144 3143 3141 3142 3143 3142 3141 3139 3136 3136 3136 3137 3138 3137 3136 3135 3134 3133 3133 3134 3132 3132 3134 3132 3135 3137 3139 3140 3139
3149 3148 3148 3147 3148 3146 3146 3145 3145 3146 3145 3149 3147 3145 3145 3143 3145 3142 3142 3144 3142 3140 3138 3136 3134 3134 3134 3134 3135 3131 3132 3132 3132 3131 3127 3127 3123 3123 3126 3126 3125 3128 3131 3133 3133
3149 3148 3148 3147 3147 3147 3147 3145 3145 3146 3140 3149 3148 3146 3145 3147 3145 3143 3141 3141 3140 3137 3138 3133 3131 3132 3131 3130 3130 3128 3129 3127 3126 3125 3125 3121 3118 3114 3116 3116 3118 3121 3122 3123 3127
3150 3149 3148 3148 3147 3147 3146 3145 3146 3148 3144 3149 3149 3147 3147 3146 3145 3143 3141 3139 3137 3135 3133 3131 3129 3128 3128 3126 3126 3126 3125 3123 3122 3120 3113 3114 3114 3106 3107 3109 3112 3113 3113 3118 3122
3151 3150 3149 3148 3149 3147 3147 3148 3149 3144 3150 3150 3149 3148 3147 3146 3145 3143 3141 3138 3137 3135 3127 3127 3124 3122 3122 3122 3123 3122 3120 3115 3110 3106 3099 3104 3102 3097 3101 3102 3104 3105 3108 3112 3114
3152 3151 3150 3150 3148 3149 3149 3150 3150 3152 3152 3151 3149 3147 3146 3146 3144 3142 3140 3137 3137 3136 3131 3125 3120 3123 3119 3121 3120 3116 3115 3113 3104 3095 3087 3088 3085 3087 3087 3091 3093 3097 3101 3106 3111
3154 3153 3152 3151 3150 3150 3150 3152 3153 3153 3152 3150 3147 3146 3144 3144 3143 3141 3139 3137 3137 3137 3137 3130 3123 3120 3124 3123 3121 3117 3112 3110 3106 3105 3096 3087 3084 3084 3082 3086 3088 3090 3093 3101 3104
3156 3157 3155 3153 3151 3151 3154 3154 3154 3151 3151 3150 3149 3148 3146 3144 3143 3141 3138 3136 3137 3136 3135 3131 3123 3123 3118 3116 3115 3114 3111 3105 3100 3095 3091 3083 3081 3081 3083 3088 3083 3083 3088 3094 3095
3157 3161 3156 3153 3151 3155 3154 3155 3154 3150 3148 3148 3148 3147 3146 3144 3142 3140 3137 3137 3135 3134 3133 3129 3125 3120 3117 3115 3110 3108 3104 3106 3103 3098 3089 3084 3088 3082 3080 3081 3086 3083 3084 3086 3091
3159 3163 3156 3153 3159 3156 3155 3153 3150 3149 3147 3147 3146 3145 3144 3143 3141 3140 3139 3138 3135 3133 3129 3128 3123 3116 3115 3110 3109 3108 3108 3104 3103 3101 3099 3098 3083 3083 3085 3082 3088 3081 3079 3079 3085
3162 3159 3155 3152 3156 3155 3153 3151 3148 3148 3145 3145 3145 3144 3143 3142 3141 3139 3138 3137 3134 3131 3127 3124 3120 3114 3106 3107 3103 3104 3105 3104 3102 3102 3093 3089 3083 3078 3073 3075 3082 3078 3077 3076 3076
3160 3161 3156 3153 3151 3153 3152 3151 3150 3145 3144 3143 3144 3143 3142 3141 3139 3137 3136 3134 3131 3129 3123 3121 3120 3118 3112 3108 3106 3102 3101 3099 3096 3095 3095 3091 3086 3080 3078 3074 3074 3078 3074 3071 3072
3158 3157 3155 3156 3151 3149 3150 3149 3149 3147 3144 3142 3143 3142 3141 3139 3137 3135 3134 3130 3128 3123 3123 3122 3118 3114 3109 3104 3102 3098 3094 3090 3087 3086 3087 3085 3087 3083 3079 3077 3073 3070 3066 3065 3069
3158 3157 3153 3151 3150 3150 3148 3148 3147 3145 3144 3144 3142 3139 3139 3137 3135 3132 3130 3128 3126 3123 3121 3119 3116 3112 3107 3099 3096 3094 3089 3090 3088 3086 3086 3086 3085 3080 3082 3081 3073 3070 3068 3066 3065
3155 3153 3153 3151 3149 3150 3148 3145 3144 3142 3142 3140 3138 3138 3137 3134 3129 3127 3125 3124 3122 3121 3119 3117 3114 3109 3102 3097 3092 3092 3090 3089 3089 3088 3086 3084 3082 3076 3079 3078 3077 3078 3070 3062 3063